• In Belarus
  • List of Countries
  • For 7 days
  • Water Temperature
  • Weather Map
  • Weather Widgets
  • user-avatar
    Login

    Hourly Weather Lezhe

    Today, 29 February, Saturday

    Time Temperature Precipitation Wind Pressure Humidity
    00:00 0°C° 0 mm 3 mps 739 mmHg 78%
    01:00 0°C° 0 mm 3 mps 739 mmHg 76%
    02:00 0°C° 0 mm 3 mps 740 mmHg 75%
    03:00 0°C° 0 mm 3 mps 740 mmHg 74%
    04:00 0°C° 0 mm 3 mps 740 mmHg 73%
    05:00 0°C° 0 mm 3 mps 740 mmHg 73%
    06:00 0°C° 0 mm 3 mps 741 mmHg 72%
    07:00 0°C° 0 mm 3 mps 741 mmHg 71%
    08:00 +3°C° 0 mm 2 mps 741 mmHg 64%
    09:00 +5°C° 0 mm 2 mps 740 mmHg 57%
    10:00 +7°C° 0 mm 2 mps 740 mmHg 50%
    11:00 +8°C° 0 mm 2 mps 740 mmHg 48%
    12:00 +9°C° 0 mm 1 mps 740 mmHg 45%
    13:00 +10°C° 0 mm 1 mps 739 mmHg 43%
    14:00 +10°C° 0 mm 1 mps 739 mmHg 47%
    15:00 +10°C° 0 mm 1 mps 739 mmHg 52%
    16:00 +9°C° 0 mm 1 mps 738 mmHg 56%
    17:00 +8°C° 0 mm 1 mps 738 mmHg 58%
    18:00 +7°C° 0 mm 1 mps 739 mmHg 60%
    19:00 +6°C° 0 mm 1 mps 739 mmHg 62%
    20:00 +6°C° 0 mm 1 mps 739 mmHg 61%
    21:00 +6°C° 0 mm 1 mps 739 mmHg 61%
    22:00 +6°C° 0 mm 1 mps 739 mmHg 61%
    23:00 +6°C° 0 mm 1 mps 739 mmHg 61%

    Tomorrow, 1 March, Sunday

    Time Temperature Precipitation Wind Pressure Humidity
    00:00 +6°C° 0 mm 1 mps 739 mmHg 61%
    01:00 +5°C° 0 mm 2 mps 739 mmHg 61%
    02:00 +4°C° 0 mm 2 mps 739 mmHg 61%
    03:00 +4°C° 0 mm 2 mps 738 mmHg 61%
    04:00 +4°C° 0 mm 2 mps 738 mmHg 62%
    05:00 +4°C° 0 mm 2 mps 738 mmHg 62%
    06:00 +5°C° 0 mm 2 mps 738 mmHg 62%
    07:00 +5°C° 0 mm 2 mps 738 mmHg 62%
    08:00 +6°C° 0 mm 2 mps 738 mmHg 60%
    09:00 +8°C° 0 mm 2 mps 738 mmHg 57%
    10:00 +10°C° 0 mm 1 mps 738 mmHg 55%
    11:00 +11°C° 0 mm 1 mps 737 mmHg 55%
    12:00 +12°C° 0 mm 1 mps 737 mmHg 55%
    13:00 +12°C° 0 mm 1 mps 736 mmHg 55%
    14:00 +12°C° 0 mm 1 mps 736 mmHg 59%
    15:00 +12°C° 0 mm 1 mps 735 mmHg 63%
    16:00 +12°C° 0 mm 1 mps 735 mmHg 66%
    17:00 +11°C° 0 mm 1 mps 735 mmHg 68%
    18:00 +11°C° 0 mm 1 mps 735 mmHg 69%
    19:00 +10°C° 0 mm 1 mps 735 mmHg 71%
    20:00 +9°C° 0 mm 2 mps 735 mmHg 73%
    21:00 +9°C° 0 mm 3 mps 735 mmHg 74%
    22:00 +10°C° 0 mm 3 mps 735 mmHg 76%
    23:00 +10°C° 1 mm 4 mps 734 mmHg 81%

    Day after tomorrow, 2 March, Monday

    Time Temperature Precipitation Wind Pressure Humidity
    00:00 +9°C° 1 mm 5 mps 734 mmHg 86%
    01:00 +9°C° 1 mm 6 mps 733 mmHg 91%
    02:00 +9°C° 0.8 mm 6 mps 733 mmHg 90%
    03:00 +9°C° 0.8 mm 6 mps 733 mmHg 90%
    04:00 +9°C° 0.8 mm 5 mps 733 mmHg 90%
    05:00 +9°C° 0.7 mm 5 mps 733 mmHg 90%
    06:00 +9°C° 0.7 mm 5 mps 733 mmHg 91%
    07:00 +10°C° 0.7 mm 4 mps 733 mmHg 91%
    08:00 +10°C° 1 mm 5 mps 733 mmHg 89%
    09:00 +11°C° 1 mm 6 mps 733 mmHg 87%
    10:00 +12°C° 1 mm 7 mps 733 mmHg 84%
    11:00 +12°C° 1.5 mm 7 mps 733 mmHg 83%
    12:00 +12°C° 1.5 mm 7 mps 733 mmHg 82%
    13:00 +14°C° 1.5 mm 7 mps 733 mmHg 82%
    14:00 +14°C° 1 mm 7 mps 732 mmHg 81%
    15:00 +13°C° 1 mm 6 mps 732 mmHg 80%
    16:00 +13°C° 1 mm 6 mps 732 mmHg 80%
    17:00 +13°C° 0.4 mm 5 mps 732 mmHg 82%
    18:00 +12°C° 0.4 mm 4 mps 732 mmHg 85%
    19:00 +11°C° 0.4 mm 3 mps 732 mmHg 87%
    20:00 +11°C° 0.1 mm 3 mps 731 mmHg 85%
    21:00 +12°C° 0.1 mm 2 mps 731 mmHg 84%
    22:00 +12°C° 0.1 mm 2 mps 731 mmHg 82%
    23:00 +12°C° 0 mm 2 mps 730 mmHg 80%

    3 March, Tuesday

    Time Temperature Precipitation Wind Pressure Humidity
    00:00 +12°C° 0 mm 2 mps 730 mmHg 79%
    01:00 +12°C° 0 mm 2 mps 729 mmHg 78%
    02:00 +11°C° 0.6 mm 4 mps 728 mmHg 80%
    03:00 +10°C° 0.6 mm 5 mps 728 mmHg 82%
    04:00 +10°C° 0.6 mm 6 mps 727 mmHg 84%
    05:00 +10°C° 1.2 mm 6 mps 727 mmHg 86%
    06:00 +10°C° 1.2 mm 7 mps 727 mmHg 88%
    07:00 +10°C° 1.2 mm 7 mps 726 mmHg 90%
    08:00 +10°C° 1 mm 7 mps 726 mmHg 90%
    09:00 +10°C° 1 mm 7 mps 726 mmHg 90%
    10:00 +10°C° 1 mm 7 mps 726 mmHg 90%
    11:00 +10°C° 5.1 mm 6 mps 726 mmHg 92%
    12:00 +10°C° 5.1 mm 6 mps 725 mmHg 94%
    13:00 +10°C° 5.1 mm 5 mps 725 mmHg 96%
    14:00 +9°C° 9.1 mm 5 mps 725 mmHg 95%
    15:00 +8°C° 9.1 mm 5 mps 724 mmHg 95%
    16:00 +8°C° 9.1 mm 5 mps 724 mmHg 95%
    17:00 +6°C° 4.7 mm 5 mps 725 mmHg 95%
    18:00 +5°C° 4.7 mm 4 mps 725 mmHg 95%
    19:00 +4°C° 4.7 mm 4 mps 726 mmHg 94%
    20:00 +4°C° 0.1 mm 3 mps 726 mmHg 92%
    21:00 +5°C° 0.1 mm 2 mps 727 mmHg 90%
    22:00 +6°C° 0.1 mm 1 mps 727 mmHg 88%
    23:00 +6°C° 0.1 mm 1 mps 727 mmHg 88%

    4 March, Wednesday

    Time Temperature Precipitation Wind Pressure Humidity
    00:00 +6°C° 0.1 mm 1 mps 727 mmHg 87%
    01:00 +6°C° 0.1 mm 1 mps 727 mmHg 87%
    02:00 +6°C° 0.2 mm 1 mps 727 mmHg 87%
    03:00 +6°C° 0.2 mm 1 mps 727 mmHg 88%
    04:00 +6°C° 0.2 mm 1 mps 727 mmHg 88%
    05:00 +6°C° 0.5 mm 1 mps 727 mmHg 89%
    06:00 +6°C° 0.5 mm 1 mps 727 mmHg 91%
    07:00 +7°C° 0.5 mm 1 mps 728 mmHg 92%
    08:00 +7°C° 1.1 mm 1 mps 728 mmHg 92%
    09:00 +7°C° 1.1 mm 1 mps 728 mmHg 93%
    10:00 +7°C° 1.1 mm 1 mps 729 mmHg 93%
    11:00 +6°C° 0.7 mm 2 mps 729 mmHg 90%
    12:00 +7°C° 0.7 mm 2 mps 729 mmHg 88%
    13:00 +7°C° 0.7 mm 2 mps 729 mmHg 85%
    14:00 +8°C° 0.1 mm 2 mps 729 mmHg 83%
    15:00 +9°C° 0.1 mm 1 mps 729 mmHg 80%
    16:00 +10°C° 0.1 mm 1 mps 729 mmHg 77%
    17:00 +9°C° 0 mm 1 mps 730 mmHg 80%
    18:00 +8°C° 0 mm 1 mps 731 mmHg 83%
    19:00 +7°C° 0 mm 1 mps 731 mmHg 85%
    20:00 +5°C° 0 mm 2 mps 732 mmHg 85%
    21:00 +5°C° 0 mm 2 mps 732 mmHg 86%
    22:00 +5°C° 0 mm 2 mps 732 mmHg 86%
    23:00 +5°C° 0 mm 2 mps 732 mmHg 86%

    5 March, Thursday

    Time Temperature Precipitation Wind Pressure Humidity
    00:00 +5°C° 0 mm 2 mps 732 mmHg 85%
    01:00 +4°C° 0 mm 2 mps 732 mmHg 85%
    02:00 +4°C° 0 mm 2 mps 733 mmHg 85%
    03:00 +3°C° 0 mm 3 mps 733 mmHg 85%
    04:00 +3°C° 0 mm 3 mps 733 mmHg 85%
    05:00 +3°C° 0.1 mm 3 mps 733 mmHg 86%
    06:00 +3°C° 0.1 mm 3 mps 733 mmHg 87%
    07:00 +3°C° 0.1 mm 3 mps 733 mmHg 88%
    08:00 +4°C° 0 mm 3 mps 733 mmHg 82%
    09:00 +5°C° 0 mm 3 mps 733 mmHg 76%
    10:00 +7°C° 0 mm 2 mps 733 mmHg 69%
    11:00 +8°C° 0 mm 2 mps 733 mmHg 66%
    12:00 +10°C° 0 mm 1 mps 733 mmHg 63%
    13:00 +11°C° 0 mm 1 mps 733 mmHg 60%
    14:00 +11°C° 0 mm 1 mps 733 mmHg 61%
    15:00 +11°C° 0 mm 1 mps 733 mmHg 61%
    16:00 +10°C° 0 mm 2 mps 732 mmHg 61%
    17:00 +9°C° 0 mm 1 mps 733 mmHg 68%
    18:00 +8°C° 0 mm 1 mps 733 mmHg 74%
    19:00 +7°C° 0 mm 1 mps 733 mmHg 80%
    20:00 +7°C° 0 mm 1 mps 733 mmHg 80%
    21:00 +7°C° 0 mm 1 mps 733 mmHg 80%
    22:00 +6°C° 0 mm 2 mps 734 mmHg 80%
    23:00 +6°C° 0 mm 2 mps 733 mmHg 79%
    Show more